Location: Avon School (historical)
(37.7514°N, 90.2201°W)
Time: 04:05:26
(UTC+00:00)

Explorer 7 - Pass Details

Date: 16 November 2024
Orbit: 456 x 598 km, 50.3° (Epoch: 03 December)

Event Time Altitude Azimuth Distance (km) Brightness Sun altitude
Exits shadow 12:10:49 - 319° (NW) 2,231 9.4 -6.7°
Reaches altitude 10° 12:12:11 10° 330° (NNW) 1,830 9.0 -6.5°
Maximum altitude 12:15:09 18° 15° (NNE) 1,398 8.9 -5.9°
Drops below altitude 10° 12:18:11 10° 60° (ENE) 1,886 10.2 -5.3°
Sets 12:21:05 0° 79° (E) 2,807 11.6 -4.8°
